| time (UTC) | temp C | wind direction | speed KPH | gust KPH | rain 1hr cm | rain 24hr cm | rain mn cm | humidity % | barometer mb |
| 20260508030005 | 8 | 0 | 0.0 | 0.0 | 0.00 | 0.69 | 0.00 | 52 | 1004.5 |
| 20260508024505 | 8 | 0 | 0.0 | 0.0 | 0.00 | 0.71 | 0.00 | 56 | 1004.7 |
| 20260508023504 | 9 | 0 | 0.0 | 0.0 | 0.00 | 0.71 | 0.00 | 56 | 1004.5 |
| 20260508023005 | 9 | 0 | 0.0 | 0.0 | 0.00 | 0.71 | 0.00 | 56 | 1004.5 |
| 20260508021504 | 10 | 0 | 0.0 | 0.0 | 0.00 | 0.71 | 0.00 | 51 | 1004.2 |
| 20260508021005 | 10 | 0 | 0.0 | 0.0 | 0.00 | 0.71 | 0.00 | 51 | 1004.2 |
| 20260508020505 | 10 | 0 | 0.0 | 0.0 | 0.00 | 0.71 | 0.00 | 53 | 1004.2 |
| 20260508020004 | 9 | 0 | 0.0 | 0.0 | 0.00 | 0.71 | 0.00 | 55 | 1004.1 |
| 20260508014504 | 9 | 0 | 0.0 | 0.0 | 0.00 | 0.71 | 0.00 | 60 | 1003.8 |
| 20260508014004 | 10 | 0 | 0.0 | 0.0 | 0.00 | 0.71 | 0.00 | 58 | 1003.7 |
| 20260508013504 | 10 | 0 | 0.0 | 0.0 | 0.00 | 0.71 | 0.00 | 56 | 1003.6 |
| 20260508013005 | 10 | 0 | 0.0 | 0.0 | 0.00 | 0.71 | 0.00 | 53 | 1003.5 |
| 20260508011504 | 10 | 0 | 0.0 | 0.0 | 0.00 | 0.71 | 0.00 | 52 | 1003.4 |
| 20260508011005 | 10 | 0 | 0.0 | 0.0 | 0.00 | 0.71 | 0.00 | 54 | 1003.4 |
| 20260508010504 | 10 | 0 | 0.0 | 0.0 | 0.00 | 0.71 | 0.00 | 54 | 1003.3 |
| 20260508010004 | 10 | 0 | 0.0 | 0.0 | 0.00 | 0.71 | 0.00 | 54 | 1003.3 |
| 20260508004504 | 11 | 0 | 0.0 | 0.0 | 0.00 | 0.71 | 0.00 | 51 | 1003.1 |
| 20260508003005 | 12 | 0 | 0.0 | 0.0 | 0.00 | 0.71 | 0.00 | 46 | 1003.0 |
| 20260508001504 | 12 | 0 | 0.0 | 0.0 | 0.00 | 0.71 | 0.00 | 42 | 1002.6 |
| 20260508001004 | 13 | 0 | 0.0 | 0.0 | 0.00 | 0.71 | 0.00 | 42 | 1002.6 |
| 20260508000504 | 13 | 0 | 0.0 | 0.0 | 0.00 | 0.71 | 0.00 | 41 | 1002.5 |
| 20260508000004 | 13 | 0 | 0.0 | 0.0 | 0.00 | 0.74 | 0.00 | 41 | 1002.5 |
| 20260507234504 | 13 | 0 | 0.0 | 0.0 | 0.00 | 0.74 | 0.00 | 40 | 1002.4 |
| 20260507234004 | 13 | 0 | 0.0 | 0.0 | 0.00 | 0.74 | 0.00 | 40 | 1002.4 |
| 20260507233504 | 13 | 0 | 0.0 | 0.0 | 0.00 | 0.74 | 0.00 | 38 | 1002.4 |
| 20260507233004 | 14 | 0 | 0.0 | 0.0 | 0.00 | 0.74 | 0.00 | 39 | 1002.4 |
| 20260507231504 | 15 | 0 | 0.0 | 0.0 | 0.00 | 0.74 | 0.00 | 39 | 1002.3 |
| 20260507231004 | 15 | 0 | 0.0 | 0.0 | 0.00 | 0.74 | 0.00 | 37 | 1002.2 |
| 20260507230503 | 15 | 0 | 0.0 | 0.0 | 0.00 | 0.74 | 0.00 | 37 | 1002.2 |
| 20260507230010 | 15 | 0 | 0.0 | 0.0 | 0.00 | 0.74 | 0.00 | 37 | 1002.1 |
| 20260507224010 | 15 | 0 | 0.0 | 0.0 | 0.00 | 0.74 | 0.00 | 35 | 1001.8 |
| 20260507223510 | 16 | 0 | 0.0 | 0.0 | 0.00 | 0.74 | 0.00 | 35 | 1001.8 |
| 20260507223010 | 16 | 0 | 0.0 | 0.0 | 0.00 | 0.74 | 0.00 | 35 | 1001.7 |
| 20260507221510 | 16 | 0 | 0.0 | 0.0 | 0.00 | 0.81 | 0.00 | 35 | 1001.6 |
| 20260507221011 | 16 | 0 | 0.0 | 0.0 | 0.00 | 0.81 | 0.00 | 35 | 1001.6 |
| 20260507220510 | 16 | 0 | 0.0 | 0.0 | 0.00 | 0.86 | 0.00 | 36 | 1001.6 |
| 20260507220010 | 16 | 0 | 0.0 | 0.0 | 0.00 | 0.86 | 0.00 | 36 | 1001.5 |
| 20260507213509 | 16 | 0 | 0.0 | 0.0 | 0.00 | 0.91 | 0.00 | 37 | 1001.6 |
| 20260507213009 | 16 | 0 | 0.0 | 0.0 | 0.00 | 0.94 | 0.00 | 37 | 1001.6 |
| 20260507211509 | 17 | 0 | 0.0 | 0.0 | 0.00 | 1.02 | 0.00 | 36 | 1001.6 |
| 20260507211010 | 17 | 0 | 0.0 | 0.0 | 0.00 | 1.02 | 0.00 | 37 | 1001.6 |
| 20260507210509 | 17 | 0 | 0.0 | 0.0 | 0.00 | 1.07 | 0.00 | 37 | 1001.5 |
| 20260507210010 | 17 | 0 | 0.0 | 0.0 | 0.00 | 1.07 | 0.00 | 36 | 1001.5 |
| 20260507204510 | 17 | 0 | 0.0 | 0.0 | 0.00 | 1.12 | 0.00 | 38 | 1001.3 |
| 20260507204009 | 17 | 0 | 0.0 | 0.0 | 0.00 | 1.14 | 0.00 | 37 | 1001.5 |
| 20260507203510 | 17 | 0 | 0.0 | 0.0 | 0.00 | 1.14 | 0.00 | 37 | 1001.2 |
| 20260507203010 | 17 | 0 | 0.0 | 0.0 | 0.00 | 1.17 | 0.00 | 36 | 1001.3 |
| 20260507201509 | 17 | 0 | 0.0 | 0.0 | 0.00 | 1.24 | 0.00 | 36 | 1001.4 |
| 20260507201009 | 17 | 0 | 0.0 | 0.0 | 0.00 | 1.27 | 0.00 | 36 | 1001.5 |
| 20260507200510 | 17 | 0 | 0.0 | 0.0 | 0.00 | 1.27 | 0.00 | 36 | 1001.4 |
| 20260507200009 | 17 | 0 | 0.0 | 0.0 | 0.00 | 1.27 | 0.00 | 35 | 1001.4 |
| 20260507194509 | 17 | 0 | 0.0 | 0.0 | 0.00 | 1.27 | 0.00 | 35 | 1001.6 |
| 20260507194009 | 17 | 0 | 0.0 | 0.0 | 0.00 | 1.32 | 0.00 | 35 | 1001.5 |
| 20260507193509 | 16 | 0 | 0.0 | 0.0 | 0.00 | 1.32 | 0.00 | 36 | 1001.6 |
| 20260507193009 | 17 | 0 | 0.0 | 0.0 | 0.00 | 1.35 | 0.00 | 37 | 1001.7 |
| 20260507191509 | 18 | 0 | 0.0 | 0.0 | 0.00 | 1.37 | 0.00 | 36 | 1001.8 |
| 20260507191009 | 18 | 0 | 0.0 | 0.0 | 0.00 | 1.40 | 0.00 | 37 | 1001.8 |
| 20260507190509 | 18 | 0 | 0.0 | 0.0 | 0.00 | 1.45 | 0.00 | 35 | 1001.8 |
| 20260507190008 | 17 | 0 | 0.0 | 0.0 | 0.00 | 1.45 | 0.00 | 36 | 1001.8 |
| 20260507184509 | 17 | 0 | 0.0 | 0.0 | 0.00 | 1.47 | 0.00 | 38 | 1001.9 |
| 20260507184009 | 17 | 0 | 0.0 | 0.0 | 0.00 | 1.47 | 0.00 | 39 | 1001.9 |
| 20260507183009 | 17 | 0 | 0.0 | 0.0 | 0.00 | 1.50 | 0.00 | 38 | 1001.8 |
| 20260507181009 | 17 | 0 | 0.0 | 0.0 | 0.00 | 1.50 | 0.00 | 42 | 1001.9 |
| 20260507180509 | 16 | 0 | 0.0 | 0.0 | 0.00 | 1.50 | 0.00 | 42 | 1002.0 |
| 20260507180009 | 17 | 0 | 0.0 | 0.0 | 0.00 | 1.50 | 0.00 | 44 | 1001.9 |
| 20260507174509 | 16 | 0 | 0.0 | 0.0 | 0.00 | 1.50 | 0.00 | 51 | 1002.1 |
| 20260507174008 | 16 | 0 | 0.0 | 0.0 | 0.00 | 1.50 | 0.00 | 50 | 1002.1 |
| 20260507173509 | 16 | 0 | 0.0 | 0.0 | 0.00 | 1.50 | 0.00 | 52 | 1002.1 |
| 20260507173009 | 16 | 0 | 0.0 | 0.0 | 0.00 | 1.50 | 0.00 | 52 | 1002.1 |
| 20260507171508 | 17 | 0 | 0.0 | 0.0 | 0.00 | 1.50 | 0.00 | 48 | 1002.3 |
| 20260507171009 | 16 | 0 | 0.0 | 0.0 | 0.00 | 1.50 | 0.00 | 49 | 1002.3 |
| 20260507170509 | 16 | 0 | 0.0 | 0.0 | 0.00 | 1.50 | 0.00 | 51 | 1002.5 |
| 20260507170008 | 16 | 0 | 0.0 | 0.0 | 0.00 | 1.50 | 0.00 | 49 | 1002.5 |
| 20260507164509 | 16 | 0 | 0.0 | 0.0 | 0.00 | 1.50 | 0.00 | 49 | 1002.4 |
| 20260507163508 | 15 | 0 | 0.0 | 0.0 | 0.00 | 1.50 | 0.00 | 52 | 1002.6 |
| 20260507163009 | 15 | 0 | 0.0 | 0.0 | 0.00 | 1.50 | 0.00 | 54 | 1002.7 |
| 20260507161008 | 16 | 0 | 0.0 | 0.0 | 0.00 | 1.50 | 0.00 | 53 | 1002.6 |
| 20260507160008 | 17 | 0 | 0.0 | 0.0 | 0.00 | 1.50 | 0.00 | 48 | 1002.8 |
| 20260507154507 | 16 | 0 | 0.0 | 0.0 | 0.00 | 1.50 | 0.00 | 53 | 1003.1 |
| 20260507153508 | 17 | 0 | 0.0 | 0.0 | 0.00 | 1.50 | 0.00 | 48 | 1003.0 |
| 20260507153008 | 17 | 0 | 0.0 | 0.0 | 0.00 | 1.50 | 0.00 | 47 | 1003.1 |
| 20260507151507 | 16 | 0 | 0.0 | 0.0 | 0.00 | 1.50 | 0.00 | 51 | 1003.2 |
| 20260507151008 | 16 | 0 | 0.0 | 0.0 | 0.00 | 1.50 | 0.00 | 51 | 1003.2 |
| 20260507150508 | 16 | 0 | 0.0 | 0.0 | 0.00 | 1.50 | 0.00 | 51 | 1003.2 |
| 20260507150008 | 16 | 0 | 0.0 | 0.0 | 0.00 | 1.50 | 0.00 | 51 | 1003.2 |
| 20260507144508 | 16 | 0 | 0.0 | 0.0 | 0.00 | 1.50 | 0.00 | 49 | 1003.1 |
| 20260507144008 | 16 | 0 | 0.0 | 0.0 | 0.00 | 1.50 | 0.00 | 50 | 1003.1 |
| 20260507143508 | 16 | 0 | 0.0 | 0.0 | 0.00 | 1.50 | 0.00 | 50 | 1003.1 |
| 20260507141507 | 15 | 0 | 0.0 | 0.0 | 0.00 | 1.50 | 0.00 | 57 | 1003.2 |
| 20260507141008 | 15 | 0 | 0.0 | 0.0 | 0.00 | 1.50 | 0.00 | 54 | 1003.2 |
| 20260507140509 | 15 | 0 | 0.0 | 0.0 | 0.00 | 1.50 | 0.00 | 56 | 1003.3 |
| 20260507140008 | 15 | 0 | 0.0 | 0.0 | 0.00 | 1.50 | 0.00 | 60 | 1003.4 |
| 20260507134508 | 14 | 0 | 0.0 | 0.0 | 0.00 | 1.50 | 0.00 | 59 | 1003.6 |
| 20260507133508 | 14 | 0 | 0.0 | 0.0 | 0.00 | 1.50 | 0.00 | 59 | 1003.7 |
| 20260507133008 | 14 | 0 | 0.0 | 0.0 | 0.00 | 1.50 | 0.00 | 65 | 1003.7 |
| 20260507131507 | 13 | 0 | 0.0 | 0.0 | 0.00 | 1.50 | 0.00 | 66 | 1003.8 |
| 20260507131008 | 13 | 0 | 0.0 | 0.0 | 0.00 | 1.50 | 0.00 | 69 | 1003.8 |
| 20260507130507 | 13 | 0 | 0.0 | 0.0 | 0.00 | 1.50 | 0.00 | 69 | 1003.9 |
| 20260507130007 | 12 | 0 | 0.0 | 0.0 | 0.00 | 1.50 | 0.00 | 69 | 1004.0 |
| 20260507123507 | 12 | 0 | 0.0 | 0.0 | 0.00 | 1.50 | 0.00 | 72 | 1004.0 |
| 20260507123007 | 11 | 0 | 0.0 | 0.0 | 0.00 | 1.50 | 0.00 | 73 | 1004.0 |
| 20260507121507 | 11 | 0 | 0.0 | 0.0 | 0.00 | 1.50 | 0.00 | 79 | 1004.1 |
| 20260507121008 | 10 | 0 | 0.0 | 0.0 | 0.00 | 1.50 | 0.00 | 78 | 1004.0 |
| 20260507120507 | 10 | 0 | 0.0 | 0.0 | 0.00 | 1.50 | 0.00 | 87 | 1003.9 |
| 20260507120007 | 10 | 0 | 0.0 | 0.0 | 0.00 | 1.50 | 0.00 | 87 | 1004.0 |
| 20260507114507 | 9 | 0 | 0.0 | 0.0 | 0.00 | 1.50 | 0.00 | 91 | 1004.0 |
| 20260507114008 | 9 | 0 | 0.0 | 0.0 | 0.00 | 1.50 | 0.00 | 91 | 1004.1 |
| 20260507113507 | 9 | 0 | 0.0 | 0.0 | 0.00 | 1.50 | 0.00 | 93 | 1004.2 |
| 20260507111507 | 8 | 0 | 0.0 | 0.0 | 0.00 | 1.50 | 0.00 | 95 | 1003.9 |
| 20260507111007 | 8 | 0 | 0.0 | 0.0 | 0.00 | 1.50 | 0.00 | 96 | 1003.9 |
| 20260507110507 | 8 | 0 | 0.0 | 0.0 | 0.00 | 1.50 | 0.00 | 96 | 1003.9 |
| 20260507110007 | 8 | 0 | 0.0 | 0.0 | 0.00 | 1.50 | 0.00 | 95 | 1004.0 |
| 20260507104507 | 8 | 0 | 0.0 | 0.0 | 0.00 | 1.50 | 0.00 | 97 | 1004.1 |
| 20260507104007 | 8 | 0 | 0.0 | 0.0 | 0.00 | 1.50 | 0.00 | 96 | 1003.9 |
| 20260507103507 | 8 | 0 | 0.0 | 0.0 | 0.00 | 1.50 | 0.00 | 96 | 1003.9 |
| 20260507103008 | 8 | 0 | 0.0 | 0.0 | 0.00 | 1.50 | 0.00 | 97 | 1003.8 |
| 20260507101507 | 8 | 0 | 0.0 | 0.0 | 0.00 | 1.50 | 0.00 | 97 | 1004.0 |
| 20260507101006 | 8 | 0 | 0.0 | 0.0 | 0.00 | 1.50 | 0.00 | 97 | 1004.0 |
| 20260507100507 | 8 | 0 | 0.0 | 0.0 | 0.00 | 1.50 | 0.00 | 97 | 1004.1 |
| 20260507100007 | 8 | 0 | 0.0 | 0.0 | 0.00 | 1.50 | 0.00 | 98 | 1004.1 |
| 20260507094506 | 8 | 0 | 0.0 | 0.0 | 0.00 | 1.50 | 0.00 | 98 | 1004.0 |
| 20260507094006 | 8 | 0 | 0.0 | 0.0 | 0.00 | 1.50 | 0.00 | 98 | 1004.1 |
| 20260507093507 | 8 | 0 | 0.0 | 0.0 | 0.00 | 1.50 | 0.00 | 97 | 1004.2 |
| 20260507093007 | 8 | 0 | 0.0 | 0.0 | 0.00 | 1.50 | 0.00 | 98 | 1003.6 |
| 20260507091507 | 8 | 0 | 0.0 | 0.0 | 0.00 | 1.50 | 0.00 | 96 | 1003.9 |
| 20260507091007 | 8 | 0 | 0.0 | 0.0 | 0.00 | 1.50 | 0.00 | 96 | 1003.6 |
| 20260507090507 | 8 | 0 | 0.0 | 0.0 | 0.00 | 1.50 | 0.00 | 95 | 1003.4 |
| 20260507090007 | 9 | 0 | 0.0 | 0.0 | 0.00 | 1.50 | 0.00 | 95 | 1003.3 |
| 20260507084006 | 9 | 0 | 0.0 | 0.0 | 0.00 | 1.50 | 0.00 | 92 | 1003.2 |
| 20260507083507 | 9 | 0 | 0.0 | 0.0 | 0.00 | 1.47 | 0.00 | 92 | 1003.0 |
| 20260507081507 | 9 | 0 | 0.0 | 0.0 | 0.00 | 1.47 | 0.00 | 91 | 1003.3 |
| 20260507081006 | 10 | 0 | 0.0 | 0.0 | 0.00 | 1.47 | 0.00 | 90 | 1003.2 |
| 20260507080506 | 10 | 0 | 0.0 | 0.0 | 0.00 | 1.47 | 0.00 | 90 | 1003.1 |
| 20260507080006 | 10 | 0 | 0.0 | 0.0 | 0.00 | 1.47 | 0.00 | 91 | 1003.1 |
| 20260507074506 | 10 | 0 | 0.0 | 0.0 | 0.00 | 1.47 | 0.00 | 92 | 1003.0 |
| 20260507074006 | 10 | 0 | 0.0 | 0.0 | 0.00 | 1.47 | 0.00 | 92 | 1002.8 |
| 20260507073506 | 10 | 0 | 0.0 | 0.0 | 0.00 | 1.47 | 0.00 | 93 | 1002.6 |
| 20260507073006 | 10 | 0 | 0.0 | 0.0 | 0.00 | 1.47 | 0.00 | 93 | 1002.9 |
| 20260507071506 | 10 | 0 | 0.0 | 0.0 | 0.00 | 1.47 | 0.00 | 92 | 1003.0 |
| 20260507071006 | 10 | 0 | 0.0 | 0.0 | 0.00 | 1.47 | 0.00 | 92 | 1002.9 |
| 20260507070506 | 10 | 0 | 0.0 | 0.0 | 0.00 | 1.47 | 0.00 | 91 | 1002.6 |
| 20260507070010 | 10 | 0 | 0.0 | 0.0 | 0.00 | 1.47 | 0.00 | 92 | 1002.2 |
| 20260507064506 | 10 | 0 | 0.0 | 0.0 | 0.00 | 1.47 | 0.00 | 92 | 1002.4 |
| 20260507064006 | 10 | 0 | 0.0 | 0.0 | 0.00 | 1.47 | 0.00 | 92 | 1002.2 |
| 20260507063505 | 10 | 0 | 0.0 | 0.0 | 0.00 | 1.47 | 0.00 | 93 | 1002.4 |
| 20260507063007 | 10 | 0 | 0.0 | 0.0 | 0.00 | 1.47 | 0.00 | 93 | 1002.5 |
| 20260507061505 | 10 | 0 | 0.0 | 0.0 | 0.00 | 1.47 | 0.00 | 93 | 1002.5 |
| 20260507061005 | 10 | 0 | 0.0 | 0.0 | 0.00 | 1.47 | 0.00 | 94 | 1002.4 |
| 20260507060006 | 10 | 0 | 0.0 | 0.0 | 0.00 | 1.47 | 0.00 | 93 | 1002.4 |
| 20260507054506 | 11 | 0 | 0.0 | 0.0 | 0.00 | 1.47 | 0.00 | 95 | 1002.4 |
| 20260507054006 | 11 | 0 | 0.0 | 0.0 | 0.00 | 1.47 | 0.00 | 95 | 1002.4 |
| 20260507053505 | 11 | 0 | 0.0 | 0.0 | 0.00 | 1.47 | 0.00 | 94 | 1002.1 |
| 20260507053006 | 11 | 0 | 0.0 | 0.0 | 0.00 | 1.47 | 0.00 | 94 | 1001.8 |
| 20260507051505 | 11 | 0 | 0.0 | 0.0 | 0.00 | 1.47 | 0.00 | 96 | 1002.2 |
| 20260507051006 | 11 | 0 | 0.0 | 0.0 | 0.00 | 1.47 | 0.00 | 95 | 1002.2 |
| 20260507050505 | 11 | 0 | 0.0 | 0.0 | 0.00 | 1.47 | 0.00 | 96 | 1002.2 |
| 20260507050006 | 11 | 0 | 0.0 | 0.0 | 0.00 | 1.47 | 0.00 | 96 | 1002.1 |
| 20260507044505 | 12 | 0 | 0.0 | 0.0 | 0.69 | 1.47 | 0.00 | 97 | 1002.0 |
| 20260507044006 | 12 | 0 | 0.0 | 0.0 | 0.69 | 1.47 | 0.00 | 98 | 1002.0 |
| 20260507043505 | 12 | 0 | 0.0 | 0.0 | 0.69 | 1.47 | 0.00 | 98 | 1002.0 |
| 20260507043005 | 12 | 0 | 0.0 | 0.0 | 0.69 | 1.47 | 0.00 | 98 | 1001.9 |
| 20260507041506 | 12 | 0 | 0.0 | 0.0 | 0.69 | 1.47 | 0.00 | 98 | 1001.5 |
| 20260507040505 | 13 | 0 | 0.0 | 0.0 | 0.69 | 1.47 | 0.00 | 99 | 1001.5 |
| 20260507040005 | 13 | 0 | 0.0 | 0.0 | 0.00 | 0.81 | 0.00 | 99 | 1001.6 |
| 20260507034505 | 13 | 0 | 0.0 | 0.0 | 0.00 | 0.81 | 0.69 | 99 | 1001.7 |
| 20260507034005 | 12 | 0 | 0.0 | 0.0 | 0.00 | 0.81 | 0.69 | 99 | 1001.9 |
| 20260507033505 | 12 | 0 | 0.0 | 0.0 | 0.00 | 0.81 | 0.69 | 99 | 1001.8 |
| 20260507033005 | 11 | 0 | 0.0 | 0.0 | 0.00 | 0.81 | 0.69 | 99 | 1001.7 |
| 20260507031005 | 11 | 0 | 0.0 | 0.0 | 0.00 | 0.81 | 0.69 | 99 | 1001.2 |
| 20260507030505 | 11 | 0 | 0.0 | 0.0 | 0.00 | 0.79 | 0.69 | 99 | 1001.1 |